Portada
METAR-TAF:

METAR-TAF

Aeropuertos :

Lawrence Municipal Airport

Lawrence, Kansas, Estados Unidos

latitud: 39-00-30N, longitud: 095-12-42W, altitud: 253 m

Observación

El informe se hizo hace 38 minutos, a las 17:52 UTC
Viento 7 kt del sur
Temperatura 33°C
Humedad 56%
Presión 1014 hPa
Visibilidad: 16.1 km
Escasas nubes a una altura de 4100 ft

METAR: KLWC 061752Z AUTO 17007KT 10SM FEW041 33/23 A2995 RMK AO2 SLP134 T03280233 10333 20233 56010

Hora: 13:30 (18:30 UTC)


TAF: falta

Observaciones y pronósticos meteorológicos de más de 4000 aeropuertos (mensajes METAR y TAF).

Los puntos amarillos y rojos representan las estaciones disponibles.

Ponga el ratón en el punto deseado para ver el nombre de la estación.

Haga clic para ver las observaciones y los pronósticos meteorológicos.

Para cambiar el mapa : haga clic en los botones verdes con una cruz de color negro para hacer un zoom, en el botón verde con un guión para alejar o en las flechas verdes para mapas adyacentes.


METAR-TAF: